Simultaneous Nadir Overpasses (SNOs) Predictions

Prediction of SNOs between NOAA-20 and AQUA Satellite Orbit:

Table of predicted SNOs for the next 14.0 days since TLE Epoch: 5/25/2018
Index Date (NOAA-20) Time (NOAA-20) Lat,Lon (NOAA-20) SZA (NOAA-20 ) Date (AQUA) Time (AQUA) Lat,Lon (AQUA) SZA (AQUA ) Distance(km) Time Diff (sec)
1 05/26/2018 06:46:10 -76.18, 137.92 103.80 05/26/2018 06:46:47 -76.19, 137.99 103.85 2.23 37
2 05/26/2018 07:36:29 77.29, -50.44 74.79 05/26/2018 07:35:50 77.28, -50.53 74.84 2.47 39
3 05/28/2018 23:02:55 -76.57,-104.90 104.70 05/28/2018 23:03:08 -76.57,-104.88 104.72 0.50 13
4 05/28/2018 23:53:21 77.35, 65.64 74.28 05/28/2018 23:52:17 77.36, 65.67 74.32 1.06 64
5 05/31/2018 14:29:15 75.96,-158.59 75.69 05/31/2018 14:30:21 75.96,-158.60 75.64 0.32 66
6 05/31/2018 15:19:39 -76.94, 12.36 105.55 05/31/2018 15:19:28 -76.94, 12.31 105.53 1.55 11
7 06/03/2018 06:46:07 76.03, -42.58 75.29 06/03/2018 06:46:48 76.04, -42.48 75.23 2.87 41
8 06/03/2018 07:36:31 -77.01, 128.41 105.96 06/03/2018 07:35:55 -77.02, 128.49 105.95 2.14 36
9 06/05/2018 23:02:49 76.55, 75.07 74.36 06/05/2018 23:03:06 76.55, 75.06 74.35 0.20 17
10 06/05/2018 23:53:16 -77.38,-114.24 106.72 06/05/2018 23:52:16 -77.38,-114.26 106.67 0.53 60
11 06/08/2018 14:29:11 -75.99, 21.53 105.17 06/08/2018 14:30:21 -75.98, 21.47 105.21 1.91 70




NCC Satellite Simultaneous Nadir Overpasses (SNOs) Prediction Service
